Location: Aldenham
(51.6667°N, 0.3500°W)
Time: 07:56:04
(UTC+00:00)

Cosmos 2058 - Pass Details

Date: 18 November 2025
Orbit: 529 x 540 km, 82.5° (Epoch: 12 December)

Event Time Altitude Azimuth Distance (km) Brightness Sun altitude
Rises 17:26:34 0° 353° (N) 2,708 6.3 -12.1°
Reaches altitude 10° 17:28:47 10° 359° (N) 1,813 5.3 -12.4°
Maximum altitude 17:32:41 50° 75° (ENE) 701 2.9 -13.0°
Drops below altitude 10° 17:36:32 10° 152° (SSE) 1,804 5.3 -13.6°
Sets 17:38:44 0° 157° (SSE) 2,693 6.3 -13.9°
